This is the latest recevied weather packets stored in our database for station/object G4GVZ-1. If no packets are shown the sender has not sent any weather packets the latest 1 day(s).
| Time | Temp. | Humidity | Pressure | Rain* | Wind** | Luminosity | Snow |
|---|---|---|---|---|---|---|---|
| 1778017549 | 10.56° C | 79% | 1013.1 hPa | 0 mm | 0 m/s | - | - |
| 1778016648 | 10.56° C | 78% | 1013.2 hPa | 0 mm | 0 m/s | - | - |
| 1778015748 | 11.11° C | 77% | 1013.2 hPa | 0 mm | 0 m/s | - | - |
| 1778014850 | 11.11° C | 77% | 1013.2 hPa | 0 mm | 0.45 m/s, 346° | - | - |
| 1778013950 | 11.11° C | 76% | 1013 hPa | 0 mm | 0.45 m/s, 346° | - | - |
| 1778013049 | 11.67° C | 75% | 1013 hPa | 0 mm | 0 m/s | - | - |
| 1778012149 | 11.67° C | 74% | 1012.9 hPa | 0 mm | 0.45 m/s, 345° | - | - |
| 1778011249 | 11.67° C | 73% | 1012.8 hPa | 0 mm | 0.45 m/s, 344° | - | - |
| 1778010349 | 11.67° C | 72% | 1012.7 hPa | 0 mm | 0.45 m/s, 344° | - | - |
| 1778009449 | 12.22° C | 70% | 1012.6 hPa | 0 mm | 0.89 m/s, 343° | - | - |
| 1778008549 | 12.22° C | 68% | 1012.6 hPa | 0 mm | 1.79 m/s, 346° | - | - |
| 1778007650 | 12.22° C | 68% | 1012.4 hPa | 0 mm | 1.34 m/s, 348° | - | - |
| 1778006749 | 12.78° C | 68% | 1012.3 hPa | 0 mm | 0.89 m/s, 350° | - | - |
| 1778005849 | 13.33° C | 66% | 1012.3 hPa | 0 mm | 0.89 m/s, 353° | - | - |
| 1778004948 | 13.33° C | 65% | 1012.2 hPa | 0 mm | 1.34 m/s, 354° | - | - |
| 1778004048 | 13.33° C | 64% | 1012.2 hPa | 0 mm | 0.89 m/s, 354° | - | - |
| 1778003150 | 13.33° C | 64% | 1012.3 hPa | 0 mm | 1.34 m/s, 352° | - | - |
| 1778002250 | 13.33° C | 64% | 1012.4 hPa | 0 mm | 1.34 m/s, 350° | - | - |
| 1778001349 | 13.33° C | 64% | 1012.4 hPa | 0 mm | 2.24 m/s, 349° | - | - |
| 1778000449 | 13.89° C | 63% | 1012.4 hPa | 0 mm | 1.79 m/s, 356° | - | - |
| 1777999549 | 14.44° C | 59% | 1012.4 hPa | 0 mm | 1.34 m/s, 22° | - | - |
| 1777998649 | 14.44° C | 59% | 1012.4 hPa | 0 mm | 2.24 m/s, 349° | - | - |
| 1777997748 | 14.44° C | 58% | 1012.3 hPa | 0 mm | 1.34 m/s, 359° | - | - |
| 1777996850 | 15° C | 57% | 1012.5 hPa | 0 mm | 1.34 m/s, 351° | - | - |
| 1777995950 | 14.44° C | 60% | 1012.4 hPa | 0 mm | 1.79 m/s, 11° | - | - |
* Rain latest hour (hover to see other rain measurements)
** Current wind speed in m/s (hover to see current wind gust speed)